Regional Weather Roundup
Issued by NWS

Home | Current Version | Previous Version | Graphics & Text | Print | Product List | Glossary On
Versions: 1 2 3 4 5 6 7 8 9 10 11 12 13 14 15 16 17 18 19 20 21 22 23 24 25 26 27 28 29 30 31 32 33 34 35 36 37 38 39 40 41 42 43 44 45 46 47 48 49 50
000
ASUS43 KIND 260300
RWRIN

WEATHER ROUNDUP FOR INDIANA
NATIONAL WEATHER SERVICE INDIANAPOLIS IN
1100 PM EDT FRI MAY 25 2018

NOTE: "FAIR" INDICATES FEW OR NO CLOUDS BELOW 12,000 FEET WITH NO
SIGNIFICANT WEATHER AND/OR OBSTRUCTIONS TO VISIBILITY.

* - STATION DOES NOT REPORT WEATHER SUCH AS PRECIPITATION OR FOG.

+ - STATION NOT QUALITY CONTROLLED BY THE NATIONAL WEATHER SERVICE.
    USE DATA WITH CAUTION...ESPECIALLY DEWPOINT AND RELATIVE
    HUMIDITY OBSERVATIONS.

INZ001>003-010>013-019-020-260400-
NORTHWEST INDIANA

CITY           SKY/WX    TMP DP  RH WIND       PRES   REMARKS
GARY /AIRPORT/ CLOUDY    79  61  53 S5        29.80R
KNOX *+        FAIR      77  55  47 SW6       29.80R
MICHIGAN CITY+ CLOUDY    75  55  50 W7        29.80R
MONTICELLO +   FAIR      78  55  44 S6        29.81R

$$

LMZ046-743>745-260400-
SOUTHERN LAKE MICHIGAN

STATION/POSITION TIME  TEMP    WIND        PRES    WAVE
                       AIR SEA DIR/SP/G            HT
                 (UTC) (F)     (DEG/KT/KT) (MB)    (FT)
BURNS HARBOR     0240   70     230/  8/  9 1009.5R
MICHIGAN CITY    0230   76     220/ 18/ 19   N/A
5NW MICH CITY    0250   68 63  250/ 10/ 12   N/A     0

$$

INZ004-005-014>016-021>024-260400-
NORTH CENTRAL INDIANA

CITY           SKY/WX    TMP DP  RH WIND       PRES   REMARKS
GOSHEN         FAIR      70  52  52 S3        29.81R
SOUTH BEND     FAIR      76  53  44 S7        29.80R
WARSAW +       FAIR      72  52  49 CALM      29.82R

$$

INZ006>009-017-018-025>027-260400-
NORTHEAST INDIANA

CITY           SKY/WX    TMP DP  RH WIND       PRES   REMARKS
ANGOLA *+      FAIR      66  55  68 CALM      29.82S
AUBURN +       FAIR      68  54  60 CALM      29.84R
FORT WAYNE     FAIR      73  56  54 S8        29.83R
KENDALLVILLE + FAIR      69  46  43 CALM      29.83R

$$

INZ028-029-035-036-043>045-051>053-260400-
WEST CENTRAL INDIANA

CITY           SKY/WX    TMP DP  RH WIND       PRES   REMARKS
CRAWFORDSVL +  FAIR      76  60  57 S10       29.85R
GREENCASTLE +  FAIR      73  61  64 CALM      29.87R
LAFAYETTE      FAIR      78  59  51 S6        29.81R
TERRE HAUTE    FAIR      77  65  66 W7        29.86R

$$

INZ030>032-037>040-046>048-054>057-064-065-260400-
CENTRAL INDIANA

CITY           SKY/WX    TMP DP  RH WIND       PRES   REMARKS
ANDERSON       FAIR      74  55  52 S5        29.87R
FRANKFORT +    FAIR      77  59  54 SW3       29.86S
GREENWOOD *+   FAIR      74  59  58 S6        29.87R
INDIANAPOLIS   FAIR      76  59  55 S10       29.86R
-EAGLE CREEK   FAIR      78  58  49 SW5       29.85R
KOKOMO +       FAIR      77  58  51 S8        29.85R
MT COMFORT *+  FAIR      75  61  60 S5        29.87R
SHELBYVILLE    FAIR      76  57  51 S6        29.86R

$$

INZ033-034-041-042-049-050-058-059-260400-
EAST CENTRAL INDIANA

CITY           SKY/WX    TMP DP  RH WIND       PRES   REMARKS
MUNCIE         FAIR      77  55  46 S6        29.86R
RICHMOND +     FAIR      68  61  77 S7        29.90R

$$

INZ060-061-067>069-081>083-085>088-260400-
SOUTHWEST INDIANA

CITY           SKY/WX    TMP DP  RH WIND       PRES   REMARKS
EVANSVILLE     FAIR      72  68  87 SW5       29.88R
HUNTINGBURG +  FAIR      74  67  78 SW5       29.88S

$$

INZ062-063-066-070>080-084-089>092-260400-
SOUTH CENTRAL AND SOUTHEAST INDIANA

CITY           SKY/WX    TMP DP  RH WIND       PRES   REMARKS
BLOOMINGTON    FAIR      76  66  71 SW7       29.88R
FRENCH LICK *+ FAIR      73  59  60 W3        29.89S
SEYMOUR +      FAIR      75  63  64 S5        29.87R

$$




USA.gov is the U.S. government's official web portal to all federal, state and local government web resources and services.